Location: Peebles
(55.6412°N, 3.1714°W)
Time: 15:39:30
(UTC+01:00)

CUBEBUG 2 - Visible Passes

Search period start: 17 July 2024 00:00
Search period end: 27 July 2024 00:00
Orbit: 569 x 666 km, 97.8° (Epoch: 16 July)

Date Brightness Start Highest point End Pass type
(mag) Time Alt. Az. Time Alt. Az. Time Alt. Az.
17 Jul ? 02:51:16 10° NNE 02:55:04 32° E 02:58:48 10° SSE visible
18 Jul ? 03:07:41 10° NNE 03:11:45 45° E 03:15:41 10° S visible
19 Jul ? 03:24:10 10° NNE 03:28:21 64° ESE 03:32:24 10° S visible
20 Jul ? 02:06:04 10° NE 02:08:08 13° E 02:10:11 10° ESE visible
20 Jul ? 03:40:42 10° NNE 03:44:55 89° ESE 03:49:00 10° SSW visible
21 Jul ? 02:21:57 10° NE 02:24:53 18° E 02:27:45 10° SE visible
21 Jul ? 03:57:16 10° N 04:01:25 66° WNW 04:05:28 10° SSW visible
22 Jul ? 02:38:07 10° NE 02:41:34 25° E 02:44:57 10° SSE visible
23 Jul ? 02:54:24 10° NNE 02:58:12 34° E 03:01:55 10° SSE visible
24 Jul ? 03:10:46 10° NNE 03:14:47 48° E 03:18:43 10° S visible
25 Jul ? 03:27:12 10° NNE 03:31:20 68° ESE 03:35:20 10° S visible
26 Jul ? 02:08:54 10° NE 02:11:05 14° E 02:13:16 10° ESE visible
26 Jul ? 03:43:40 10° NNE 03:47:49 86° WNW 03:51:52 10° SSW visible
